Location: Codford Saint Peter
(51.1597°N, 2.0531°W)
Time: 17:24:57
(UTC+00:00)

IGS 5A - Pass Details

Date: 18 September 2020
Orbit: 583 x 588 km, 97.6° (Epoch: 09 October)

Event Time Altitude Azimuth Distance (km) Brightness Sun altitude
Exits shadow 21:13:36 57° 321° (NW) 692 4.0 -26.5°
Drops below altitude 10° 21:17:02 10° 343° (NNW) 1,919 6.8 -26.9°
Sets 21:19:12 0° 346° (NNW) 2,824 7.8 -27.1°
